Tracking 31032 objects as of 13-Jul-2025
HD Live streaming from Space Station
objects crossing your sky now

STARLINK-34250

Track STARLINK-34250 now!
10-day predictions
STARLINK-34250 is classified as:


NORAD ID: 64690
Int'l Code: 2025-139AC
Perigee: 378.9 km
Apogee: 379.2 km
Inclination: 53.2 °
Period: 92.0 minutes
Semi major axis: 6750 km
RCS: Unknown
Launch date: June 28, 2025
Source: United States (US)
Launch site: AIR FORCE EASTERN TEST RANGE (AFETR)
Your satellite tracking list
Your tracking list is empty




NASA's NSSDC Master Catalog

Two Line Element Set (TLE):
1 64690U 25139AC  25194.85172247 -.00789349  00000-0 -85226-2 0  9999
2 64690  53.1598 160.9144 0000263 103.2595 256.8450 15.65456456  3649
Source of the keplerian elements: AFSPC